Location: Austin
(30.3000°N, 97.7500°W)
Time: 06:33:19
(UTC-05:00)

deb Centaur AC-2 - Pass Details

Date: 16 June 2025
Orbit: 583 x 1328 km, 30.0° (Epoch: 08 July)

Event Time Altitude Azimuth Distance (km) Brightness Sun altitude
Exits shadow 05:20:59 20° 248° (WSW) 1,366 5.2 -13.2°
Maximum altitude 05:23:53 69° 169° (S) 629 4.0 -12.7°
Drops below altitude 10° 05:28:22 10° 86° (E) 1,987 7.6 -11.9°
Sets 05:30:50 0° 84° (E) 2,969 8.7 -11.5°
